Regional Weather Roundup
Issued by NWS

Home | Current Version | Previous Version | Text Only | Print | Product List | Glossary On
Versions: 1 2 3 4 5 6 7 8 9 10 11 12 13 14 15 16 17 18 19 20 21 22 23 24 25 26 27 28 29 30 31 32 33 34 35 36 37 38 39 40 41 42 43 44 45 46 47 48 49 50
000
ASUS44 KMEG 130310
RWRTN
TENNESSEE HOURLY STATE WEATHER ROUNDUP
NATIONAL WEATHER SERVICE MEMPHIS TN
900 PM CST TUE DEC 12 2017

TNZ002-004-019-021-049-052-054-088>092-130400-
WEST TENNESSEE

CITY           SKY/WX    TMP DP  RH WIND       PRES   REMARKS
MEMPHIS INTL   CLEAR     36  22  56 CALM      30.16F
NWS MEMPHIS      N/A     31 N/A N/A MISG        N/A
JACKSON        CLEAR     28  19  69 SW3       30.15S
DYERSBURG      CLEAR     30  21  69 CALM      30.15F
SOMERVILLE     CLEAR     30  19  64 CALM      30.13F
COVINGTON      CLEAR     28  19  69 CALM      30.15F
UNION CITY     CLEAR     28  12  50 CALM      30.14S
BOLIVAR        CLEAR     27  19  74 CALM      30.14S
PARIS          CLEAR     23  14  68 CALM      30.12S
HUNTINGDON     CLEAR     27  16  63 CALM      30.13R
LEXINGTON      CLEAR     28  16  59 CALM      30.13F
SELMER         CLEAR     27  18  69 CALM      30.13S
SAVANNAH       CLEAR     28  19  69 CALM      30.14S
$$

TNZ008-025-027-028-033-062-065-066-130400-
NORTH MIDDLE TENNESSEE

CITY           SKY/WX    TMP DP  RH WIND       PRES   REMARKS
NASHVILLE      CLEAR     31   8  38 NW6       30.13R WCI  25
PORTLAND       CLEAR     27  10  50 CALM      30.09F
CLARKSVILLE    CLEAR     29   6  38 CALM      30.13S
SMYRNA         CLEAR     26  13  57 W6        30.14R WCI  19
COOKEVILLE     CLEAR     27   9  46 NW5       30.07S WCI  21
GALLATIN       CLEAR     30   9  40 NW6       30.13F WCI  24
CROSSVILLE     CLEAR     25   7  46 NW9       30.02S WCI  15
$$

TNZ061-075-076-078-094-096-097-130400-
SOUTH MIDDLE TENNESSEE

CITY           SKY/WX    TMP DP  RH WIND       PRES   REMARKS
FAYETTEVILLE   CLEAR     32  12  43 N6        30.08F WCI  26
TULLAHOMA      CLEAR     28  14  54 NW5       30.08S WCI  23
WINCHESTER     CLEAR     28  14  54 NW5       30.08F WCI  23
MCMINNVILLE    CLEAR     27  10  50 CALM      30.09S
COLUMBIA       CLEAR     32  10  40 CALM      30.11S
SHELBYVILLE    CLEAR     28  18  64 N6        30.11S WCI  22
$$

TNZ017-018-042-046-047-130400-
NORTHEAST TENNESSEE

CITY           SKY/WX    TMP DP  RH WIND       PRES   REMARKS
TRI CITIES     CLEAR     27   5  39 W12G21    29.94R WCI  17
ELIZABETHTON   CLEAR     28   5  37 NW14G22   29.92R WCI  17
$$

TNZ012-013-036-069-073-074-130400-
CENTRAL EAST TENNESSEE

CITY           SKY/WX    TMP DP  RH WIND       PRES   REMARKS
KNOXVILLE      CLEAR     30  15  53 W10       30.04R WCI  21
OAK RIDGE      CLEAR     31   8  38 W7        30.07R WCI  24
DOWNTOWN KNOXV   N/A     32  10  40 CALM      30.06R
GATLINBURG     CLEAR     30   9  40 NW8       30.03R WCI  23
MORRISTOWN     CLEAR     28   3  34 NW12G18   30.00R WCI  18
JACKSBORO      CLEAR     28   7  40 VRB5      30.07R WCI  23
$$

TNZ083-085-099-130400-
SOUTHEAST TENNESSEE

CITY           SKY/WX    TMP DP  RH WIND       PRES   REMARKS
CHATTANOOGA    CLEAR     34  11  38 N15       30.08R WCI  24
DAYTON         PTCLDY    32  14  47 N7        30.07S WCI  26
$$

SKY/WX REPORTED AS FAIR MEANS FEW OR NO CLOUDS BELOW
12 THOUSAND FEET.




USA.gov is the U.S. government's official web portal to all federal, state and local government web resources and services.